Weather Roundup
Issued by NWS Chicago, IL

Home | Current Version | Previous Version | Text Only | Print | Product List | Glossary On
Versions: 1 2 3 4 5 6 7 8 9 10 11 12 13 14 15 16 17 18 19 20 21 22 23 24 25 26 27 28 29 30 31 32 33 34 35 36 37 38 39 40 41 42 43 44 45 46 47 48 49 50
000
NZUS59 KLOT 292208
HRRLOT

CHICAGO AREA WEATHER ROUNDUP
NATIONAL WEATHER SERVICE CHICAGO/ROMEOVILLE IL
500 PM CDT FRI APR 29 2016

NOTE: "FAIR" INDICATES FEW OR NO CLOUDS BELOW 12,000 FEET WITH NO
SIGNIFICANT WEATHER AND/OR OBSTRUCTIONS TO VISIBILITY.

* THESE STATIONS ARE NOT UNDER NWS QUALITY CONTROL. THEY ALSO MAY NOT
  REPORT WEATHER SUCH AS PRECIPITATION OR FOG.

ILZ005-006-012>014-019>023-292300-
NORTHEAST ILLINOIS

CITY           SKY/WX    TMP DP  RH WIND       PRES   REMARKS
OHARE          MOSUNNY   50  40  68 NE14      30.09F
MIDWAY         PTSUNNY   50  39  66 NE12      30.10R
AURORA         CLOUDY    49  40  71 NE5       30.12R
LANSING*       MOSUNNY   49  40  73 NE8       30.11S
JOLIET*        CLOUDY    52  42  67 CALM      30.11R
WAUKEGAN       CLOUDY    44  38  79 NE8       30.12F
DUPAGE AIRPORT CLOUDY    50  38  63 N9        30.09F
WHEELING       PTSUNNY   47  39  74 NE12      30.11F
KANKAKEE*      CLOUDY    53  42  66 CALM      30.10S
MORRIS*        CLOUDY    50  42  73 CALM      30.10R
LEWIS AIRPORT* CLOUDY    51  39  63 N3        30.11R
$$

WIZ051-052-058>065-066-070>072-292300-
SOUTHEAST WISCONSIN

CITY           SKY/WX    TMP DP  RH WIND       PRES   REMARKS
MILWAUKEE      PTSUNNY   44  36  73 NE8       30.14S
KENOSHA*       CLOUDY    46  38  73 E8        30.13S
RACINE*        CLOUDY    44  36  73 NE9       30.15S
BURLINGTON     CLOUDY    47  38  71 E6        30.12F
WAUKESHA       CLOUDY    46  32  57 NE12G18   30.13S
WEST BEND      MOSUNNY   52  28  40 E10       30.12S
$$

INZ001>003-010>013-019-020-292300-
NORTHWEST INDIANA

CITY           SKY/WX    TMP DP  RH WIND       PRES   REMARKS
GARY*          CLOUDY    46  45  93 N7        30.12F
MICHIGAN CITY* NOT AVBL
RENSSELAER*    NOT AVBL
VALPARAISO     CLOUDY    47  41  80 N9        30.11R
$$

LMZ740>746-292300-
SOUTHERN LAKE MICHIGAN

STATION/POSITION TIME  SKY/WX   TEMP WIND        PRES    VSBY
                                AIR  DIR/SP/G
                 (UTC)          (F)  (DEG/KT/KT) (MB)    (MI)
HARRISON CRIB    2100            42  350/ 10/ 11   N/A
BURNHAM HARBOR   2200            44   20/ 10/ 14   N/A
CALUMET HARBOR   2100            43  340/ 13/ 15 1019.2S
BURNS HARBOR     2120            42   10/ 12/ 14 1020.0F
MICHIGAN CITY    2100            42  300/  8/ 10   N/A
$$

ABBREVIATIONS USED IN REMARKS
   TC - TEMPERATURE IN CELSIUS
  WCI - WIND CHILL INDEX
   HX - HEAT INDEX
  VSB - VISIBILITY
$$




USA.gov is the U.S. government's official web portal to all federal, state and local government web resources and services.